owner,sensor,date,latitude,longitude,vertical_datum,direction_of_sea_water_velocity,sea_water_speed,upward_sea_water_velocity,qcFlag 
TABS,ioos:station:wmo:42044:1,2014-07-01T02:30:00Z,26.1914,-97.0507,2.0,284.0073842,19.00509405,-99999.0,'11111222,11111222,99999999' 
TABS,ioos:station:wmo:42044:1,2014-07-01T22:30:00Z,26.1914,-97.0507,2.0,344.0072177,38.00081315,-99999.0,'11111222,11111222,99999999' 
TABS,ioos:station:wmo:42044:1,2014-07-01T23:00:00Z,26.1914,-97.0507,2.0,341.0007094,43.00273945,-99999.0,'11111222,11111222,99999999' 
TABS,ioos:station:wmo:42044:1,2014-07-01T23:30:00Z,26.1914,-97.0507,2.0,344.0072177,38.00081315,-99999.0,'11111222,11111222,99999999' 
TABS,ioos:station:wmo:42044:1,2014-07-02T00:00:00Z,26.1914,-97.0507,2.0,341.9968922,34.00493641,-99999.0,'11111222,11111222,99999999' 
TABS,ioos:station:wmo:42044:1,2014-07-02T00:30:00Z,26.1914,-97.0507,2.0,347.0085855,29.00237921,-99999.0,'11111222,11111222,99999999' 
TABS,ioos:station:wmo:42044:1,2014-07-02T01:00:00Z,26.1914,-97.0507,2.0,338.005417,33.00196358,-99999.0,'11111222,11111222,99999999' 
TABS,ioos:station:wmo:42044:1,2014-07-02T01:30:00Z,26.1914,-97.0507,2.0,266.0058268,27.99798921,-99999.0,'11111222,11111222,99999999' 
TABS,ioos:station:wmo:42044:1,2014-07-02T02:00:00Z,26.1914,-97.0507,2.0,341.0041737,30.9981322,-99999.0,'11111222,11111222,99999999' 
TABS,ioos:station:wmo:42044:1,2014-07-02T02:30:00Z,26.1914,-97.0507,2.0,347.0085855,29.00237921,-99999.0,'11111222,11111222,99999999' 
TABS,ioos:station:wmo:42044:1,2014-07-02T03:00:00Z,26.1914,-97.0507,2.0,343.9997649,30.00230824,-99999.0,'11111222,11111222,99999999' 
TABS,ioos:station:wmo:42044:1,2014-07-02T03:30:00Z,26.1914,-97.0507,2.0,343.9997649,30.00230824,-99999.0,'11111222,11111222,99999999' 
TABS,ioos:station:wmo:42044:1,2014-07-02T04:00:00Z,26.1914,-97.0507,2.0,340.9893259,27.99705877,-99999.0,'11111222,11111222,99999999' 
TABS,ioos:station:wmo:42044:1,2014-07-02T05:30:00Z,26.1914,-97.0507,2.0,358.997639,28.00428717,-99999.0,'11111222,11111222,99999999' 
TABS,ioos:station:wmo:42044:1,2014-07-02T06:00:00Z,26.1914,-97.0507,2.0,355.9851323,10.9969905,-99999.0,'11111222,11111222,99999999' 
TABS,ioos:station:wmo:42044:1,2014-07-02T06:30:00Z,26.1914,-97.0507,2.0,3.003356135,25.00433962,-99999.0,'11111222,11111222,99999999' 
TABS,ioos:station:wmo:42044:1,2014-07-02T07:00:00Z,26.1914,-97.0507,2.0,9.006038924,26.00052499,-99999.0,'11111222,11111222,99999999' 
TABS,ioos:station:wmo:42044:1,2014-07-02T07:30:00Z,26.1914,-97.0507,2.0,4.992916644,27.00245359,-99999.0,'11111222,11111222,99999999' 
TABS,ioos:station:wmo:42044:1,2014-07-02T08:00:00Z,26.1914,-97.0507,2.0,8.004263989,27.00305909,-99999.0,'11111222,11111222,99999999' 
TABS,ioos:station:wmo:42044:1,2014-07-02T08:30:00Z,26.1914,-97.0507,2.0,19.99645075,25.99724985,-99999.0,'11111222,11111222,99999999' 
TABS,ioos:station:wmo:42044:1,2014-07-02T09:00:00Z,26.1914,-97.0507,2.0,14.99064262,30.00096665,-99999.0,'11111222,11111222,99999999' 
TABS,ioos:station:wmo:42044:1,2014-07-02T09:30:00Z,26.1914,-97.0507,2.0,19.99244906,31.99825777,-99999.0,'11111222,11111222,99999999' 
TABS,ioos:station:wmo:42044:1,2014-07-02T10:00:00Z,26.1914,-97.0507,2.0,22.99187019,32.00221242,-99999.0,'11111222,11111222,99999999' 
TABS,ioos:station:wmo:42044:1,2014-07-02T10:30:00Z,26.1914,-97.0507,2.0,19.99244906,31.99825777,-99999.0,'11111222,11111222,99999999' 
TABS,ioos:station:wmo:42044:1,2014-07-02T11:00:00Z,26.1914,-97.0507,2.0,22.99248232,31.00296276,-99999.0,'11111222,11111222,99999999' 
TABS,ioos:station:wmo:42044:1,2014-07-02T11:30:00Z,26.1914,-97.0507,2.0,20.99794868,28.99546516,-99999.0,'11111222,11111222,99999999' 
TABS,ioos:station:wmo:42044:1,2014-07-02T12:00:00Z,26.1914,-97.0507,2.0,21.00760913,25.99798646,-99999.0,'11111222,11111222,99999999' 
TABS,ioos:station:wmo:42044:1,2014-07-02T12:30:00Z,26.1914,-97.0507,2.0,19.99645075,25.99724985,-99999.0,'11111222,11111222,99999999' 
TABS,ioos:station:wmo:42044:1,2014-07-02T13:00:00Z,26.1914,-97.0507,2.0,26.00535594,27.00404599,-99999.0,'11111222,11111222,99999999' 
TABS,ioos:station:wmo:42044:1,2014-07-02T13:30:00Z,26.1914,-97.0507,2.0,24.00219935,25.00188993,-99999.0,'11111222,11111222,99999999' 
TABS,ioos:station:wmo:42044:1,2014-07-02T14:00:00Z,26.1914,-97.0507,2.0,24.00219935,25.00188993,-99999.0,'11111222,11111222,99999999' 
TABS,ioos:station:wmo:42044:1,2014-07-02T14:30:00Z,26.1914,-97.0507,2.0,20.01094005,22.99845647,-99999.0,'11111222,11111222,99999999' 
TABS,ioos:station:wmo:42044:1,2014-07-02T15:00:00Z,26.1914,-97.0507,2.0,19.9923363,26.99684796,-99999.0,'11111222,11111222,99999999' 
TABS,ioos:station:wmo:42044:1,2014-07-02T15:30:00Z,26.1914,-97.0507,2.0,14.99802157,25.00166794,-99999.0,'11111222,11111222,99999999' 
TABS,ioos:station:wmo:42044:1,2014-07-02T16:00:00Z,26.1914,-97.0507,2.0,17.9922212,27.00033333,-99999.0,'11111222,11111222,99999999' 
TABS,ioos:station:wmo:42044:1,2014-07-02T16:30:00Z,26.1914,-97.0507,2.0,10.99891809,25.99753835,-99999.0,'11111222,11111222,99999999' 
TABS,ioos:station:wmo:42044:1,2014-07-02T17:00:00Z,26.1914,-97.0507,2.0,8.007365942,29.00275849,-99999.0,'11111222,11111222,99999999' 
TABS,ioos:station:wmo:42044:1,2014-07-02T17:30:00Z,26.1914,-97.0507,2.0,0.000210459,28.0,-99999.0,'11111222,11111222,99999999' 
TABS,ioos:station:wmo:42044:1,2014-07-02T18:00:00Z,26.1914,-97.0507,2.0,359.0071854,30.00450633,-99999.0,'11111222,11144222,99999999' 
TABS,ioos:station:wmo:42044:1,2014-07-02T18:30:00Z,26.1914,-97.0507,2.0,5.005025688,29.00056896,-99999.0,'11111222,11111222,99999999' 
TABS,ioos:station:wmo:42044:1,2014-07-02T19:00:00Z,26.1914,-97.0507,2.0,16.99148496,31.00332402,-99999.0,'11111222,11111222,99999999' 
TABS,ioos:station:wmo:42044:1,2014-07-02T19:30:00Z,26.1914,-97.0507,2.0,3.00147563,33.99663072,-99999.0,'11111222,11111222,99999999' 
TABS,ioos:station:wmo:42044:1,2014-07-02T20:00:00Z,26.1914,-97.0507,2.0,358.9934968,36.99571056,-99999.0,'11111222,11111222,99999999' 
TABS,ioos:station:wmo:42044:1,2014-07-02T20:30:00Z,26.1914,-97.0507,2.0,2.005794512,38.00328012,-99999.0,'11111222,11111222,99999999' 
TABS,ioos:station:wmo:42044:1,2014-07-02T21:00:00Z,26.1914,-97.0507,2.0,2.994924656,40.00463223,-99999.0,'11111222,11111222,99999999' 
TABS,ioos:station:wmo:42044:1,2014-07-02T22:00:00Z,26.1914,-97.0507,2.0,10.99891809,38.99630752,-99999.0,'11111222,11111222,99999999' 
TABS,ioos:station:wmo:42044:1,2014-07-02T22:30:00Z,26.1914,-97.0507,2.0,10.99891809,38.99630752,-99999.0,'11111222,11111222,99999999' 
TABS,ioos:station:wmo:42044:1,2014-07-02T23:00:00Z,26.1914,-97.0507,2.0,12.00217643,44.00186473,-99999.0,'11111222,11111222,99999999' 
TABS,ioos:station:wmo:42044:1,2014-07-02T23:30:00Z,26.1914,-97.0507,2.0,10.99891809,38.99630752,-99999.0,'11111222,11111222,99999999' 
TABS,ioos:station:wmo:42044:1,2014-07-03T00:00:00Z,26.1914,-97.0507,2.0,103.9951498,43.99597368,-99999.0,'11111222,11111222,99999999' 
TABS,ioos:station:wmo:42044:1,2014-07-03T00:30:00Z,26.1914,-97.0507,2.0,15.00283991,42.99555558,-99999.0,'11111222,11111222,99999999' 
TABS,ioos:station:wmo:42044:1,2014-07-03T01:00:00Z,26.1914,-97.0507,2.0,4.987121958,12.99920767,-99999.0,'11111222,11111222,99999999' 
TABS,ioos:station:wmo:42044:1,2014-07-03T01:30:00Z,26.1914,-97.0507,2.0,4.994194674,43.99702035,-99999.0,'11111222,11111222,99999999' 
TABS,ioos:station:wmo:42044:1,2014-07-03T02:00:00Z,26.1914,-97.0507,2.0,5.998705636,39.99900999,-99999.0,'11111222,11111222,99999999' 
TABS,ioos:station:wmo:42044:1,2014-07-03T02:30:00Z,26.1914,-97.0507,2.0,0.000210459,44.0,-99999.0,'11111222,11111222,99999999' 
TABS,ioos:station:wmo:42044:1,2014-07-03T03:00:00Z,26.1914,-97.0507,2.0,358.9942334,44.99693545,-99999.0,'11111222,11111222,99999999' 
TABS,ioos:station:wmo:42044:1,2014-07-03T03:30:00Z,26.1914,-97.0507,2.0,357.0038557,44.00015455,-99999.0,'11111222,11111222,99999999' 
TABS,ioos:station:wmo:42044:1,2014-07-03T04:00:00Z,26.1914,-97.0507,2.0,32.00804955,23.99835203,-99999.0,'11111222,11111222,99999999' 
TABS,ioos:station:wmo:42044:1,2014-07-03T04:30:00Z,26.1914,-97.0507,2.0,358.9973883,39.99612606,-99999.0,'11111222,11111222,99999999' 
TABS,ioos:station:wmo:42044:1,2014-07-03T05:00:00Z,26.1914,-97.0507,2.0,357.0038557,44.00015455,-99999.0,'11111222,11111222,99999999' 
TABS,ioos:station:wmo:42044:1,2014-07-03T05:30:00Z,26.1914,-97.0507,2.0,0.000210459,44.0,-99999.0,'11111222,11111222,99999999' 
TABS,ioos:station:wmo:42044:1,2014-07-03T06:00:00Z,26.1914,-97.0507,2.0,356.9972491,46.00317054,-99999.0,'11111222,11111222,99999999' 
TABS,ioos:station:wmo:42044:1,2014-07-03T06:30:00Z,26.1914,-97.0507,2.0,358.993901,40.99632301,-99999.0,'11111222,11111222,99999999' 
TABS,ioos:station:wmo:42044:1,2014-07-03T07:00:00Z,26.1914,-97.0507,2.0,1.999713306,44.9973977,-99999.0,'11111222,11111222,99999999' 
TABS,ioos:station:wmo:42044:1,2014-07-03T07:30:00Z,26.1914,-97.0507,2.0,359.0042207,41.99634508,-99999.0,'11111222,11144222,99999999' 
TABS,ioos:station:wmo:42044:1,2014-07-03T08:00:00Z,26.1914,-97.0507,2.0,0.000210459,44.0,-99999.0,'11111222,11111222,99999999' 
TABS,ioos:station:wmo:42044:1,2014-07-03T08:30:00Z,26.1914,-97.0507,2.0,61.98959717,24.99824994,-99999.0,'11111222,11111222,99999999' 
TABS,ioos:station:wmo:42044:1,2014-07-03T09:00:00Z,26.1914,-97.0507,2.0,359.0007367,42.99654172,-99999.0,'11111222,11144222,99999999' 
TABS,ioos:station:wmo:42044:1,2014-07-03T09:30:00Z,26.1914,-97.0507,2.0,253.9922122,32.99952121,-99999.0,'11111222,11111222,99999999' 
TABS,ioos:station:wmo:42044:1,2014-07-03T10:00:00Z,26.1914,-97.0507,2.0,354.0030573,37.99796047,-99999.0,'11111222,11111222,99999999' 
TABS,ioos:station:wmo:42044:1,2014-07-03T10:30:00Z,26.1914,-97.0507,2.0,352.9948221,40.99604981,-99999.0,'11111222,11111222,99999999' 
TABS,ioos:station:wmo:42044:1,2014-07-03T11:00:00Z,26.1914,-97.0507,2.0,352.9995829,31.99855622,-99999.0,'11111222,11111222,99999999' 
TABS,ioos:station:wmo:42044:1,2014-07-03T11:30:00Z,26.1914,-97.0507,2.0,356.9947314,32.99538453,-99999.0,'11111222,11111222,99999999' 
TABS,ioos:station:wmo:42044:1,2014-07-03T12:00:00Z,26.1914,-97.0507,2.0,356.9899402,11.99655367,-99999.0,'11111222,11111222,99999999' 
TABS,ioos:station:wmo:42044:1,2014-07-03T12:30:00Z,26.1914,-97.0507,2.0,353.0068814,34.00297193,-99999.0,'11111222,11111222,99999999' 
TABS,ioos:station:wmo:42044:1,2014-07-03T13:00:00Z,26.1914,-97.0507,2.0,354.0045485,26.99768323,-99999.0,'11111222,11111222,99999999' 
TABS,ioos:station:wmo:42044:1,2014-07-03T13:30:00Z,26.1914,-97.0507,2.0,353.0046607,27.9984321,-99999.0,'11111222,11111222,99999999' 
TABS,ioos:station:wmo:42044:1,2014-07-03T14:00:00Z,26.1914,-97.0507,2.0,341.0077005,25.99515339,-99999.0,'11111222,11111222,99999999' 
TABS,ioos:station:wmo:42044:1,2014-07-03T14:30:00Z,26.1914,-97.0507,2.0,347.9935302,19.99747984,-99999.0,'11111222,11111222,99999999' 
TABS,ioos:station:wmo:42044:1,2014-07-03T15:00:00Z,26.1914,-97.0507,2.0,349.997495,18.99879207,-99999.0,'11111222,11111222,99999999' 
TABS,ioos:station:wmo:42044:1,2014-07-03T15:30:00Z,26.1914,-97.0507,2.0,350.9878943,18.0022443,-99999.0,'11111222,11111222,99999999' 
TABS,ioos:station:wmo:42044:1,2014-07-03T16:00:00Z,26.1914,-97.0507,2.0,349.997495,18.99879207,-99999.0,'11111222,11111222,99999999' 
TABS,ioos:station:wmo:42044:1,2014-07-03T16:30:00Z,26.1914,-97.0507,2.0,0.000210459,66.0,-99999.0,'11111222,11111222,99999999' 
TABS,ioos:station:wmo:42044:1,2014-07-03T17:00:00Z,26.1914,-97.0507,2.0,355.9853755,14.99680299,-99999.0,'11111222,11111222,99999999' 
TABS,ioos:station:wmo:42044:1,2014-07-03T17:30:00Z,26.1914,-97.0507,2.0,356.9814075,15.00081664,-99999.0,'11111222,11111222,99999999' 
TABS,ioos:station:wmo:42044:1,2014-07-03T18:00:00Z,26.1914,-97.0507,2.0,8.008720925,13.99650313,-99999.0,'11111222,11111222,99999999' 
TABS,ioos:station:wmo:42044:1,2014-07-03T18:30:00Z,26.1914,-97.0507,2.0,8.984272929,12.99948076,-99999.0,'11111222,11111222,99999999' 
TABS,ioos:station:wmo:42044:1,2014-07-03T19:00:00Z,26.1914,-97.0507,2.0,10.98712975,16.0033309,-99999.0,'11111222,11111222,99999999' 
TABS,ioos:station:wmo:42044:1,2014-07-03T19:30:00Z,26.1914,-97.0507,2.0,20.99411251,16.99838228,-99999.0,'11111222,11111222,99999999' 
TABS,ioos:station:wmo:42044:1,2014-07-03T20:00:00Z,26.1914,-97.0507,2.0,31.99999848,22.0034361,-99999.0,'11111222,11111222,99999999' 
TABS,ioos:station:wmo:42044:1,2014-07-03T20:30:00Z,26.1914,-97.0507,2.0,0.000210459,10.0,-99999.0,'11111222,11111222,99999999' 
TABS,ioos:station:wmo:42044:1,2014-07-03T21:00:00Z,26.1914,-97.0507,2.0,31.99999848,22.0034361,-99999.0,'11111222,11111222,99999999' 
TABS,ioos:station:wmo:42044:1,2014-07-03T21:30:00Z,26.1914,-97.0507,2.0,32.99351849,26.003494,-99999.0,'11111222,11111222,99999999' 
TABS,ioos:station:wmo:42044:1,2014-07-03T22:00:00Z,26.1914,-97.0507,2.0,35.00779323,24.00267693,-99999.0,'11111222,11111222,99999999' 
TABS,ioos:station:wmo:42044:1,2014-07-03T22:30:00Z,26.1914,-97.0507,2.0,32.99351849,26.003494,-99999.0,'11111222,11111222,99999999' 
TABS,ioos:station:wmo:42044:1,2014-07-03T23:00:00Z,26.1914,-97.0507,2.0,38.99623168,29.00196717,-99999.0,'11111222,11111222,99999999' 
TABS,ioos:station:wmo:42044:1,2014-07-03T23:30:00Z,26.1914,-97.0507,2.0,34.99654998,31.99510275,-99999.0,'11111222,11111222,99999999' 
TABS,ioos:station:wmo:42044:1,2014-07-04T00:00:00Z,26.1914,-97.0507,2.0,32.00730518,33.99837202,-99999.0,'11111222,11111222,99999999' 
TABS,ioos:station:wmo:42044:1,2014-07-04T00:30:00Z,26.1914,-97.0507,2.0,24.00918602,34.99797851,-99999.0,'11111222,11111222,99999999' 
TABS,ioos:station:wmo:42044:1,2014-07-04T01:00:00Z,26.1914,-97.0507,2.0,22.99075387,34.00071176,-99999.0,'11111222,11111222,99999999' 
TABS,ioos:station:wmo:42044:1,2014-07-04T01:30:00Z,26.1914,-97.0507,2.0,24.00199715,33.99988971,-99999.0,'11111222,11111222,99999999' 
TABS,ioos:station:wmo:42044:1,2014-07-04T02:00:00Z,26.1914,-97.0507,2.0,17.00498161,36.99752424,-99999.0,'11111222,11111222,99999999' 
TABS,ioos:station:wmo:42044:1,2014-07-04T02:30:00Z,26.1914,-97.0507,2.0,17.9922212,36.00044444,-99999.0,'11111222,11111222,99999999' 
TABS,ioos:station:wmo:42044:1,2014-07-04T03:00:00Z,26.1914,-97.0507,2.0,14.0016801,35.99956944,-99999.0,'11111222,11111222,99999999' 
TABS,ioos:station:wmo:42044:1,2014-07-04T03:30:00Z,26.1914,-97.0507,2.0,14.00252638,40.99822923,-99999.0,'11111222,11111222,99999999' 
TABS,ioos:station:wmo:42044:1,2014-07-04T04:00:00Z,26.1914,-97.0507,2.0,12.0039113,40.00474097,-99999.0,'11111222,11111222,99999999' 
TABS,ioos:station:wmo:42044:1,2014-07-04T04:30:00Z,26.1914,-97.0507,2.0,10.99442645,42.00086904,-99999.0,'11111222,11111222,99999999' 
TABS,ioos:station:wmo:42044:1,2014-07-04T05:00:00Z,26.1914,-97.0507,2.0,8.993882536,41.00412296,-99999.0,'11111222,11111222,99999999' 
TABS,ioos:station:wmo:42044:1,2014-07-04T05:30:00Z,26.1914,-97.0507,2.0,11.99910962,38.00024868,-99999.0,'11111222,11111222,99999999' 
TABS,ioos:station:wmo:42044:1,2014-07-04T06:00:00Z,26.1914,-97.0507,2.0,5.005302265,40.00253242,-99999.0,'11111222,11111222,99999999' 
TABS,ioos:station:wmo:42044:1,2014-07-04T06:30:00Z,26.1914,-97.0507,2.0,350.004168,39.00206405,-99999.0,'11111222,11111222,99999999' 
TABS,ioos:station:wmo:42044:1,2014-07-04T07:00:00Z,26.1914,-97.0507,2.0,2.006171463,41.9957355,-99999.0,'11111222,11111222,99999999' 
TABS,ioos:station:wmo:42044:1,2014-07-04T07:30:00Z,26.1914,-97.0507,2.0,356.000444,38.99497916,-99999.0,'11111222,11111222,99999999' 
TABS,ioos:station:wmo:42044:1,2014-07-04T08:00:00Z,26.1914,-97.0507,2.0,353.9958319,39.00398057,-99999.0,'11111222,11111222,99999999' 
TABS,ioos:station:wmo:42044:1,2014-07-04T08:30:00Z,26.1914,-97.0507,2.0,348.0039073,36.99800265,-99999.0,'11111222,11111222,99999999' 
TABS,ioos:station:wmo:42044:1,2014-07-04T09:00:00Z,26.1914,-97.0507,2.0,347.9935302,4.99936996,-99999.0,'11133222,11111222,99999999' 
TABS,ioos:station:wmo:42044:1,2014-07-04T09:30:00Z,26.1914,-97.0507,2.0,349.9932914,31.9967764,-99999.0,'11111222,11111222,99999999' 
TABS,ioos:station:wmo:42044:1,2014-07-04T10:00:00Z,26.1914,-97.0507,2.0,346.9970349,29.99925666,-99999.0,'11111222,11111222,99999999' 
TABS,ioos:station:wmo:42044:1,2014-07-04T10:30:00Z,26.1914,-97.0507,2.0,342.0081997,27.00033333,-99999.0,'11111222,11111222,99999999' 
TABS,ioos:station:wmo:42044:1,2014-07-04T11:00:00Z,26.1914,-97.0507,2.0,346.9957125,25.99675749,-99999.0,'11111222,11111222,99999999' 
TABS,ioos:station:wmo:42044:1,2014-07-04T11:30:00Z,26.1914,-97.0507,2.0,331.9937899,24.00060416,-99999.0,'11111222,11111222,99999999' 
TABS,ioos:station:wmo:42044:1,2014-07-04T12:00:00Z,26.1914,-97.0507,2.0,322.9939811,21.00005952,-99999.0,'11111222,11111222,99999999' 
TABS,ioos:station:wmo:42044:1,2014-07-04T12:30:00Z,26.1914,-97.0507,2.0,312.0114871,16.00238107,-99999.0,'11111222,11111222,99999999' 
TABS,ioos:station:wmo:42044:1,2014-07-04T13:00:00Z,26.1914,-97.0507,2.0,307.9990645,12.99452192,-99999.0,'11111222,11111222,99999999' 
TABS,ioos:station:wmo:42044:1,2014-07-04T13:30:00Z,26.1914,-97.0507,2.0,282.0151228,11.00098632,-99999.0,'11111222,11111222,99999999' 
TABS,ioos:station:wmo:42044:1,2014-07-04T14:00:00Z,26.1914,-97.0507,2.0,293.9787208,10.99924543,-99999.0,'11111222,11111222,99999999' 
TABS,ioos:station:wmo:42044:1,2014-07-04T14:30:00Z,26.1914,-97.0507,2.0,287.9695186,7.001514122,-99999.0,'11133222,11111222,99999999' 
TABS,ioos:station:wmo:42044:1,2014-07-04T15:00:00Z,26.1914,-97.0507,2.0,274.97015,3.001283059,-99999.0,'11133222,11111222,99999999' 
TABS,ioos:station:wmo:42044:1,2014-07-04T15:30:00Z,26.1914,-97.0507,2.0,315.0003157,1.994041123,-99999.0,'11133222,11111222,99999999' 
TABS,ioos:station:wmo:42044:1,2014-07-04T16:00:00Z,26.1914,-97.0507,2.0,192.0945183,1.002247474,-99999.0,'11133222,11111222,99999999' 
TABS,ioos:station:wmo:42044:1,2014-07-04T16:30:00Z,26.1914,-97.0507,2.0,356.9473351,3.004263637,-99999.0,'11133222,11111222,99999999' 
TABS,ioos:station:wmo:42044:1,2014-07-04T17:00:00Z,26.1914,-97.0507,2.0,47.02622883,6.000016667,-99999.0,'11133222,11111222,99999999' 
TABS,ioos:station:wmo:42044:1,2014-07-04T17:30:00Z,26.1914,-97.0507,2.0,56.94616161,3.996861269,-99999.0,'11133222,11111222,99999999' 
TABS,ioos:station:wmo:42044:1,2014-07-04T18:00:00Z,26.1914,-97.0507,2.0,14.95374024,4.999299951,-99999.0,'11133222,11111222,99999999' 
TABS,ioos:station:wmo:42044:1,2014-07-04T18:30:00Z,26.1914,-97.0507,2.0,19.96229308,7.000607117,-99999.0,'11133222,11111222,99999999' 
TABS,ioos:station:wmo:42044:1,2014-07-04T19:00:00Z,26.1914,-97.0507,2.0,356.9899402,11.99655367,-99999.0,'11111222,11111222,99999999' 
TABS,ioos:station:wmo:42044:1,2014-07-04T19:30:00Z,26.1914,-97.0507,2.0,1.980526637,10.99656765,-99999.0,'11111222,11111222,99999999' 
TABS,ioos:station:wmo:42044:1,2014-07-04T20:00:00Z,26.1914,-97.0507,2.0,359.0106568,11.00164079,-99999.0,'11111222,11144222,99999999' 
TABS,ioos:station:wmo:42044:1,2014-07-04T20:30:00Z,26.1914,-97.0507,2.0,0.000210459,10.0,-99999.0,'11111222,11111222,99999999' 
TABS,ioos:station:wmo:42044:1,2014-07-04T21:00:00Z,26.1914,-97.0507,2.0,2.006410272,11.99735387,-99999.0,'11111222,11111222,99999999' 
TABS,ioos:station:wmo:42044:1,2014-07-04T21:30:00Z,26.1914,-97.0507,2.0,0.000210459,11.0,-99999.0,'11111222,11111222,99999999' 
TABS,ioos:station:wmo:42044:1,2014-07-04T22:00:00Z,26.1914,-97.0507,2.0,345.0234095,13.00166143,-99999.0,'11111222,11111222,99999999' 
TABS,ioos:station:wmo:42044:1,2014-07-04T22:30:00Z,26.1914,-97.0507,2.0,347.9880149,16.00035625,-99999.0,'11111222,11111222,99999999' 
TABS,ioos:station:wmo:42044:1,2014-07-04T23:00:00Z,26.1914,-97.0507,2.0,340.9917637,12.00460745,-99999.0,'11111222,11111222,99999999' 
TABS,ioos:station:wmo:42044:1,2014-07-04T23:30:00Z,26.1914,-97.0507,2.0,353.9932176,15.00237648,-99999.0,'11111222,11111222,99999999' 
TABS,ioos:station:wmo:42044:1,2014-07-05T00:00:00Z,26.1914,-97.0507,2.0,353.0133674,18.00369407,-99999.0,'11111222,11111222,99999999' 
TABS,ioos:station:wmo:42044:1,2014-07-05T00:30:00Z,26.1914,-97.0507,2.0,6.009202365,17.00342613,-99999.0,'11111222,11111222,99999999' 
TABS,ioos:station:wmo:42044:1,2014-07-05T01:00:00Z,26.1914,-97.0507,2.0,355.9866339,17.00169697,-99999.0,'11111222,11111222,99999999' 
TABS,ioos:station:wmo:42044:1,2014-07-05T01:30:00Z,26.1914,-97.0507,2.0,1.989077571,17.00024117,-99999.0,'11111222,11111222,99999999' 
TABS,ioos:station:wmo:42044:1,2014-07-05T02:00:00Z,26.1914,-97.0507,2.0,3.009979162,19.99758485,-99999.0,'11111222,11111222,99999999' 
TABS,ioos:station:wmo:42044:1,2014-07-05T02:30:00Z,26.1914,-97.0507,2.0,50.99464192,22.00528346,-99999.0,'11111222,11111222,99999999' 
TABS,ioos:station:wmo:42044:1,2014-07-05T03:00:00Z,26.1914,-97.0507,2.0,359.0038649,23.003478,-99999.0,'11111222,11144222,99999999' 
TABS,ioos:station:wmo:42044:1,2014-07-05T03:30:00Z,26.1914,-97.0507,2.0,0.000210459,21.0,-99999.0,'11111222,11111222,99999999' 
TABS,ioos:station:wmo:42044:1,2014-07-05T04:00:00Z,26.1914,-97.0507,2.0,12.00689069,19.99747984,-99999.0,'11111222,11111222,99999999' 
TABS,ioos:station:wmo:42044:1,2014-07-05T04:30:00Z,26.1914,-97.0507,2.0,7.994042443,22.00381103,-99999.0,'11111222,11111222,99999999' 
TABS,ioos:station:wmo:42044:1,2014-07-05T05:00:00Z,26.1914,-97.0507,2.0,23.00902674,22.99976087,-99999.0,'11111222,11111222,99999999' 
TABS,ioos:station:wmo:42044:1,2014-07-05T05:30:00Z,26.1914,-97.0507,2.0,2.005650623,22.003477,-99999.0,'11111222,11111222,99999999' 
TABS,ioos:station:wmo:42044:1,2014-07-05T06:00:00Z,26.1914,-97.0507,2.0,2.996565199,22.00007727,-99999.0,'11111222,11111222,99999999' 
TABS,ioos:station:wmo:42044:1,2014-07-05T06:30:00Z,26.1914,-97.0507,2.0,2.00557469,24.00470162,-99999.0,'11111222,11111222,99999999' 
TABS,ioos:station:wmo:42044:1,2014-07-05T07:00:00Z,26.1914,-97.0507,2.0,2.990734081,23.00132387,-99999.0,'11111222,11111222,99999999' 
TABS,ioos:station:wmo:42044:1,2014-07-05T07:30:00Z,26.1914,-97.0507,2.0,2.00557469,24.00470162,-99999.0,'11111222,11111222,99999999' 
TABS,ioos:station:wmo:42044:1,2014-07-05T08:00:00Z,26.1914,-97.0507,2.0,359.0086541,26.00389394,-99999.0,'11111222,11144222,99999999' 
TABS,ioos:station:wmo:42044:1,2014-07-05T08:30:00Z,26.1914,-97.0507,2.0,358.9919112,25.0038717,-99999.0,'11111222,11111222,99999999' 
TABS,ioos:station:wmo:42044:1,2014-07-05T09:00:00Z,26.1914,-97.0507,2.0,2.006281676,25.99593237,-99999.0,'11111222,11111222,99999999' 
TABS,ioos:station:wmo:42044:1,2014-07-05T09:30:00Z,26.1914,-97.0507,2.0,2.006171463,27.997157,-99999.0,'11111222,11111222,99999999' 
TABS,ioos:station:wmo:42044:1,2014-07-05T10:00:00Z,26.1914,-97.0507,2.0,354.0045485,26.99768323,-99999.0,'11111222,11111222,99999999' 
TABS,ioos:station:wmo:42044:1,2014-07-05T10:30:00Z,26.1914,-97.0507,2.0,0.000210459,25.0,-99999.0,'11111222,11111222,99999999' 
TABS,ioos:station:wmo:42044:1,2014-07-05T11:00:00Z,26.1914,-97.0507,2.0,2.006281676,25.99593237,-99999.0,'11111222,11111222,99999999' 
TABS,ioos:station:wmo:42044:1,2014-07-05T11:30:00Z,26.1914,-97.0507,2.0,353.9993974,22.00055454,-99999.0,'11111222,11111222,99999999' 
TABS,ioos:station:wmo:42044:1,2014-07-05T12:00:00Z,26.1914,-97.0507,2.0,348.0006823,29.00375493,-99999.0,'11111222,11111222,99999999' 
TABS,ioos:station:wmo:42044:1,2014-07-05T12:30:00Z,26.1914,-97.0507,2.0,338.0080751,29.00020172,-99999.0,'11111222,11111222,99999999' 
TABS,ioos:station:wmo:42044:1,2014-07-05T13:00:00Z,26.1914,-97.0507,2.0,344.0023753,26.99548296,-99999.0,'11111222,11111222,99999999' 
TABS,ioos:station:wmo:42044:1,2014-07-05T13:30:00Z,26.1914,-97.0507,2.0,335.9983034,28.00122319,-99999.0,'11111222,11111222,99999999' 
TABS,ioos:station:wmo:42044:1,2014-07-05T14:00:00Z,26.1914,-97.0507,2.0,332.9867741,23.9982166,-99999.0,'11111222,11111222,99999999' 
TABS,ioos:station:wmo:42044:1,2014-07-05T14:30:00Z,26.1914,-97.0507,2.0,329.9935203,18.99611802,-99999.0,'11111222,11111222,99999999' 
TABS,ioos:station:wmo:42044:1,2014-07-05T15:00:00Z,26.1914,-97.0507,2.0,335.0110629,20.00248485,-99999.0,'11111222,11111222,99999999' 
TABS,ioos:station:wmo:42044:1,2014-07-05T15:30:00Z,26.1914,-97.0507,2.0,330.0020439,23.00122605,-99999.0,'11111222,11111222,99999999' 